Regional Weather Roundup
Issued by NWS

Home | Current Version | Previous Version | Graphics & Text | Print | Product List | Glossary On
Versions: 1 2 3 4 5 6 7 8 9 10 11 12 13 14 15 16 17 18 19 20 21 22 23 24 25 26 27 28 29 30 31 32 33 34 35 36 37 38 39 40 41 42 43 44 45 46 47 48 49 50
879
ASUS43 KBIS 210702
RWRND

NORTH DAKOTA REGIONAL WEATHER ROUNDUP
NATIONAL WEATHER SERVICE BISMARCK ND
100 AM CST WED FEB 21 2018

NOTE: "FAIR" INDICATES FEW OR NO CLOUDS BELOW 12,000 FEET WITH NO
SIGNIFICANT WEATHER AND/OR OBSTRUCTIONS TO VISIBILITY.


NDZ001>003-009>011-017-210800-
NORTHWEST NORTH DAKOTA

CITY           SKY/WX    TMP DP  RH WIND       PRES   REMARKS
WILLISTON      CLEAR     -8 -14  74 W5        30.25R WCI -19
MINOT          CLEAR      1  -9  62 SW18      30.20R WCI -20
MINOT AFB      CLEAR     -1  -9  66 W15       30.19R WCI -20
$$

NDZ018>021-031>035-040>046-210800-
SOUTHWEST NORTH DAKOTA

CITY           SKY/WX    TMP DP  RH WIND       PRES   REMARKS
BISMARCK       CLEAR     -3 -10  72 SW9       30.32R WCI -19
DICKINSON      CLEAR     -7 -15  68 W9        30.21R WCI -24
GARRISON         N/A     -5 -11  75 W12       30.23R WCI -23
HETTINGER ARPT CLEAR    -14 -20  74 W12       30.26R WCI -35
$$

NDZ004>008-012>016-024-026-027-054-210800-
NORTHEAST NORTH DAKOTA

CITY           SKY/WX    TMP DP  RH WIND       PRES   REMARKS
GRAND FORKS    FAIR       3  -5  69 W10       30.27R WCI -12
DEVILS LAKE    FAIR      -2  -8  76 SW12      30.23R WCI -20
$$

NDZ022-023-025-028>030-036>039-047>053-210800-
SOUTHEAST NORTH DAKOTA

CITY           SKY/WX    TMP DP  RH WIND       PRES   REMARKS
FARGO          FAIR       0  -7  72 SW13      30.33R WCI -18
JAMESTOWN      CLEAR      2  -6  69 W9        30.27R WCI -13
$$





USA.gov is the U.S. government's official web portal to all federal, state and local government web resources and services.